[[{"header":{"parameterUnit":"m.s-1","parameterCategory":1,"la1":30.2991,"la2":30.254,"lo1":-89.0895,"lo2":-89.0444,"dy":0.0017,"dx":0.0017,"nx":28,"ny":28,"refTime":"2025-07-25T03:00:00:Z","depth":0,"parameterNumber":2,"parameterNumberName":"U-component_of_WINDS"},"data":[0,0,0,0,0,0,0,0,0,0,0,0,0,0,0,0,0,0,0,0,0,0,0,0,0,0,0,0,0,0,0,0,0,0,0,0,0,0,0,0,0,0,0,0,0,0,0,0,0,0,0,0,0,0,0,0,0,0,-2.0131,-2.0132,0,-2.0216,-2.0217,-2.0218,-2.0231,-2.023,-2.023,-2.0229,-2.0319,-2.0322,-2.0325,0,0,0,0,0,0,0,0,0,0,0,0,0,-1.9982,-1.9985,-2.0131,-2.0132,-2.0133,-2.0216,-2.0217,-2.0218,-2.0231,-2.023,-2.023,-2.0229,-2.0318,-2.0322,-2.0325,0,0,0,0,0,0,0,0,0,0,0,0,0,-2.0055,-1.9986,-2.0131,-2.015,-2.0152,-2.0216,-2.0217,-2.0218,-2.0232,-2.023,-2.0229,-2.0228,-2.0317,-2.0321,-2.0326,-2.0377,0,0,-2.034,-2.0342,0,0,0,0,0,0,0,0,-2.0051,-2.006,-2.0146,-2.0148,-2.0151,-2.0212,-2.0197,-2.0272,-2.0232,-2.0201,-2.0229,-2.0228,-2.0284,-2.0292,-2.031,-2.0382,-2.0385,-2.034,-2.0343,-2.0345,-2.0347,0,0,0,0,0,0,0,-2.0046,-2.0057,-2.0165,-2.0147,-2.015,-2.0154,-2.0163,-2.0212,-2.0248,-2.0204,-2.0205,-2.0215,-2.0286,-2.0306,-2.0312,-2.0387,-2.034,-2.0344,-2.0347,-2.0349,-2.0503,-2.0504,0,0,0,0,0,0,-2.0037,-2.0052,-2.0162,-2.0167,-2.0097,-2.0158,-2.0168,-2.0194,-2.0248,-2.0255,-2.0216,-2.0215,-2.0298,-2.0307,-2.0316,-2.0378,-2.0345,-2.035,-2.0352,-2.0502,-2.0503,-2.0505,0,0,0,0,0,0,-2.0034,-2.0047,-2.0159,-2.011,-2.0125,-2.0162,-2.019,-2.0196,-2.0216,-2.0257,-2.0264,-2.0229,-2.0298,-2.0309,-2.0361,-2.0382,-2.0352,-2.0356,-2.05,-2.0502,-2.0504,-2.0505,0,0,0,0,0,0,-2.0029,-2.0045,-2.0065,-2.011,-2.0127,-2.0202,-2.0191,-2.0198,-2.0223,-2.0223,-2.0271,-2.0278,-2.0298,-2.0354,-2.0366,-2.0387,-2.036,-2.0499,-2.0501,-2.0503,-2.0503,-2.0506,-2.0509,0,0,0,0,0,-2.0024,-2.0063,-2.0066,-2.0079,-2.0152,-2.0204,-2.0213,-2.0234,-2.0225,-2.0245,-2.0271,-2.0277,-2.0378,-2.036,-2.0373,-2.0396,-2.0497,-2.05,-2.0503,-2.0502,-2.0506,-2.0509,0,0,0,0,0,0,-2.002,-2.0069,-2.0073,-2.0128,-2.0161,-2.0206,-2.0232,-2.0238,-2.0276,-2.0274,-2.03,-2.031,-2.0361,-2.0384,-2.0363,-2.0448,-2.0437,-2.0442,-2.0431,-2.0435,-2.0438,-2.0432,-2.0363,0,0,0,0,0,-2.0025,-2.0062,-2.0103,-2.0148,-2.0164,-2.0195,-2.0218,-2.0231,-2.0267,-2.0282,-2.0312,-2.0347,-2.0387,-2.0413,-2.0451,-2.0507,-2.0517,-2.0529,-2.0532,-2.0534,-2.0539,-2.0568,-2.0574,-2.0514,-2.0514,-2.0514,0,0,-2.0037,-2.0069,-2.009,-2.0147,-2.0175,-2.0212,-2.0207,-2.0247,-2.0276,-2.0288,-2.0339,-2.0362,-2.0403,-2.0457,-2.0482,-2.0477,-2.0558,-2.0538,-2.054,-2.0543,-2.0572,-2.0578,-2.0583,-2.0516,-2.0516,-2.0516,0,0,-2.0078,-2.0105,-2.0144,-2.0171,-2.0212,-2.0232,-2.0242,-2.0285,-2.03,-2.0351,-2.0361,-2.0395,-2.0463,-2.0492,-2.0515,-2.0564,-2.057,-2.0577,-2.0593,-2.0621,-2.0626,-2.063,-2.0647,-2.0652,-2.0581,-2.0581,-2.0581,0,-2.0088,-2.0144,-2.0164,-2.0203,-2.0228,-2.0239,-2.0279,-2.0305,-2.0357,-2.0374,-2.0368,-2.0452,-2.0481,-2.054,-2.0552,-2.0571,-2.0582,-2.0571,-2.0623,-2.0628,-2.0632,-2.0648,-2.0655,-2.0581,-2.0581,-2.0581,-2.0581,0,-2.0153,-2.0192,-2.0219,-2.0267,-2.0294,-2.0334,-2.036,-2.0386,-2.0396,-2.0417,-2.0468,-2.0502,-2.0548,-2.0563,-2.0574,-2.0624,-2.0619,-2.0618,-2.0607,-2.0638,-2.0653,-2.066,-2.0582,-2.0582,-2.0582,-2.0582,0,0,-2.0195,-2.0252,-2.0261,-2.0282,-2.0328,-2.0358,-2.0398,-2.0441,-2.0462,-2.0497,-2.0531,-2.0587,-2.0586,-2.0612,-2.0627,-2.0652,-2.0687,-2.0647,-2.0649,-2.0652,-2.0742,-2.0742,-2.0749,-2.0691,-2.0692,-2.0693,-2.0738,0,-2.024,-2.031,-2.0328,-2.0388,-2.0423,-2.0434,-2.0468,-2.05,-2.052,-2.0554,-2.0576,-2.0615,-2.0611,-2.0627,-2.0652,-2.0677,-2.0705,-2.0674,-2.0722,-2.0724,-2.0711,-2.0757,-2.0758,-2.0798,-2.0744,-2.0745,-2.0746,0,-2.0302,-2.0336,-2.0399,-2.0437,-2.0453,-2.0484,-2.0524,-2.0556,-2.0591,-2.0604,-2.0633,-2.0644,-2.0686,-2.0673,-2.073,-2.0709,-2.073,-2.0745,-2.0747,-2.0752,-2.0736,-2.0762,-2.0812,-2.0818,-2.0756,-2.0755,-2.0755,0,-2.0325,-2.0387,-2.0432,-2.045,-2.0496,-2.0517,-2.0538,-2.0573,-2.0596,-2.0632,-2.0647,-2.0688,-2.0709,-2.074,-2.0762,-2.0751,-2.0817,-2.0806,-2.0829,-2.0828,-2.0842,-2.0841,-2.0895,-2.0857,-2.0857,-2.0857,-2.0856,0,-2.0373,-2.041,-2.0442,-2.047,-2.0512,-2.0533,-2.0574,-2.0595,-2.0625,-2.0657,-2.067,-2.07,-2.0727,-2.0761,-2.0779,-2.0823,-2.0833,-2.0844,-2.0848,-2.0843,-2.0841,-2.0856,-2.0854,-2.0858,-2.0858,-2.0858,-2.0857,0,-2.0405,-2.0428,-2.0477,-2.0517,-2.0527,-2.0557,-2.0591,-2.0618,-2.0638,-2.0678,-2.0689,-2.072,-2.076,-2.0785,-2.0836,-2.0848,-2.0896,-2.09,-2.0884,-2.0885,-2.0906,-2.0903,-2.0971,-2.0981,-2.0937,-2.0937,-2.0937,0,-2.0434,-2.0463,-2.0505,-2.0526,-2.0546,-2.0581,-2.0605,-2.0627,-2.0651,-2.0693,-2.0715,-2.0755,-2.0789,-2.0852,-2.088,-2.0919,-2.0923,-2.0944,-2.0929,-2.0922,-2.0922,-2.092,-2.0922,-2.0946,-2.0947,-2.0947,-2.0947,0,-2.0483,-2.0492,-2.0525,-2.0562,-2.059,-2.062,-2.0651,-2.0668,-2.0695,-2.0722,-2.0762,-2.0787,-2.0838,-2.0878,-2.0919,-2.0941,-2.0948,-2.0952,-2.0959,-2.0953,-2.0942,-2.0947,-2.0889,-2.095,-2.095,-2.095,-2.0949,-2.0949,-2.0514,-2.0539,-2.0572,-2.0608,-2.0633,-2.066,-2.0687,-2.0709,-2.0743,-2.0785,-2.0796,-2.0838,-2.0872,-2.0927,-2.0949,-2.0982,-2.098,-2.099,-2.0993,-2.0995,-2.0994,-2.0937,-2.099,-2.099,-2.099,-2.099,-2.099,0,-2.0563,-2.0583,-2.0616,-2.0657,-2.0686,-2.0689,-2.0722,-2.0746,-2.0782,-2.0812,-2.0844,-2.0889,-2.0927,-2.0957,-2.0996,-2.1017,-2.1021,-2.1027,-2.1025,-2.103,-2.0995,-2.0985,-2.1022,-2.1022,-2.1022,-2.1022,-2.1022,-2.1022,-2.0591,-2.0633,-2.0646,-2.0701,-2.0722,-2.0761,-2.078,-2.0805,-2.0829,-2.0879,-2.091,-2.0929,-2.0959,-2.1,-2.1034,-2.1042,-2.1056,-2.106,-2.1068,-2.1036,-2.1032,-2.1029,-2.1019,-2.1063,-2.1063,-2.11,-2.11,-2.11]},{"header":{"parameterUnit":"m.s-1","parameterCategory":1,"la1":30.2991,"la2":30.254,"lo1":-89.0895,"lo2":-89.0444,"dy":0.0017,"dx":0.0017,"nx":28,"ny":28,"refTime":"2025-07-25T03:00:00:Z","depth":0,"parameterNumber":3,"parameterNumberName":"V-component_of_WINDS"},"data":[0,0,0,0,0,0,0,0,0,0,0,0,0,0,0,0,0,0,0,0,0,0,0,0,0,0,0,0,0,0,0,0,0,0,0,0,0,0,0,0,0,0,0,0,0,0,0,0,0,0,0,0,0,0,0,0,0,0,5.8374,5.8376,0,5.8565,5.8567,5.8569,5.854,5.8537,5.8534,5.8531,5.872,5.8728,5.8736,0,0,0,0,0,0,0,0,0,0,0,0,0,5.7979,5.7986,5.8374,5.8377,5.8379,5.8564,5.8567,5.8569,5.8541,5.8537,5.8533,5.8529,5.8718,5.8727,5.8737,0,0,0,0,0,0,0,0,0,0,0,0,0,5.8158,5.7989,5.8374,5.8387,5.839,5.8564,5.8567,5.857,5.8542,5.8537,5.8532,5.8528,5.8714,5.8726,5.8738,5.8908,0,0,5.8775,5.878,0,0,0,0,0,0,0,0,5.8148,5.8172,5.8383,5.8387,5.839,5.8524,5.8497,5.8683,5.8543,5.8484,5.8531,5.8525,5.8658,5.8675,5.8721,5.8917,5.8925,5.8776,5.8783,5.8788,5.8792,0,0,0,0,0,0,0,5.8135,5.8164,5.8449,5.8386,5.8391,5.8381,5.8401,5.8532,5.8596,5.8489,5.8487,5.851,5.8659,5.8709,5.8725,5.8928,5.8776,5.8786,5.8794,5.8798,5.9269,5.9274,0,0,0,0,0,0,5.812,5.8154,5.8443,5.8455,5.8255,5.8392,5.8415,5.8486,5.8594,5.8606,5.8514,5.8508,5.8691,5.8711,5.8732,5.8935,5.8788,5.88,5.8806,5.9264,5.927,5.9276,0,0,0,0,0,0,5.8112,5.8146,5.8436,5.8304,5.834,5.8404,5.8484,5.8492,5.8542,5.8614,5.8624,5.8554,5.8688,5.8715,5.8864,5.8941,5.8805,5.8816,5.9258,5.9266,5.9273,5.9345,0,0,0,0,0,0,5.8101,5.8144,5.8211,5.8306,5.8348,5.8567,5.8489,5.8499,5.8563,5.8557,5.8654,5.8665,5.8686,5.8846,5.8876,5.8955,5.8825,5.9251,5.9261,5.9271,5.9336,5.9354,5.937,0,0,0,0,0,5.8087,5.8223,5.8215,5.825,5.8433,5.8572,5.8595,5.8619,5.857,5.8636,5.8682,5.8662,5.8928,5.8862,5.8895,5.8979,5.9246,5.9258,5.927,5.9328,5.935,5.9369,0,0,0,0,0,0,5.8134,5.8236,5.8227,5.8399,5.8477,5.8567,5.8652,5.8643,5.8735,5.8725,5.8749,5.8771,5.8921,5.8965,5.8889,5.9147,5.908,5.9099,5.9113,5.9135,5.9151,5.9136,5.8835,0,0,0,0,0,5.8165,5.8272,5.8354,5.8497,5.8537,5.8588,5.8649,5.8661,5.8741,5.8774,5.883,5.8908,5.9008,5.9074,5.9172,5.9342,5.9361,5.9416,5.9433,5.9447,5.9462,5.9552,5.9576,5.9315,5.9315,5.9315,0,0,5.8229,5.8298,5.8364,5.8509,5.857,5.8677,5.8616,5.8732,5.881,5.8791,5.8935,5.8979,5.9067,5.9226,5.93,5.9268,5.9539,5.9462,5.9473,5.9481,5.9566,5.9591,5.9613,5.9323,5.9322,5.932,0,0,5.84,5.8465,5.8589,5.8652,5.8747,5.8779,5.8809,5.89,5.8929,5.9074,5.9061,5.9153,5.9328,5.9389,5.9444,5.9635,5.9618,5.9666,5.9754,5.9841,5.9862,5.988,5.9945,5.9968,5.9682,5.9682,5.9682,0,5.8467,5.863,5.8654,5.8771,5.8833,5.8822,5.8947,5.9006,5.9127,5.9169,5.9132,5.9348,5.9407,5.9579,5.9625,5.9671,5.9703,5.9654,5.9857,5.9876,5.9893,5.9955,5.998,5.9687,5.9686,5.9686,5.9685,0,5.8705,5.8818,5.8907,5.9024,5.9097,5.9217,5.9257,5.9327,5.9332,5.9367,5.9513,5.9583,5.9692,5.9734,5.974,5.9906,5.9883,5.9852,5.9784,5.9922,5.9981,6.0005,5.9694,5.9692,5.9691,5.9689,0,0,5.8912,5.904,5.9072,5.9123,5.9225,5.9311,5.9429,5.9537,5.9595,5.9679,5.9775,5.9922,5.9893,5.9955,5.9967,6.0044,6.0186,6.0002,6.0005,6.0031,6.0369,6.039,6.0417,6.0177,6.0181,6.0185,6.036,0,5.9089,5.93,5.9324,5.951,5.9611,5.9601,5.9703,5.9775,5.9811,5.9901,5.9939,6.0042,5.9997,6.0034,6.011,6.0153,6.0254,6.0141,6.0264,6.0268,6.0239,6.0448,6.0472,6.0634,6.0384,6.0388,6.0391,0,5.9325,5.9415,5.9611,5.9696,5.974,5.9831,5.993,6.0017,6.0097,6.0118,6.0186,6.0187,6.0306,6.0235,6.0396,6.0319,6.0371,6.0399,6.0406,6.0416,6.0336,6.0461,6.0686,6.0709,6.0427,6.0424,6.0422,0,5.9451,5.9621,5.976,5.9804,5.9908,5.9972,6.0018,6.0094,6.0156,6.0242,6.0282,6.038,6.0433,6.0508,6.0535,6.0482,6.0694,6.0626,6.0711,6.071,6.0754,6.075,6.0988,6.0793,6.0792,6.0792,6.0791,0,5.9645,5.9765,5.9817,5.9902,6.0034,6.006,6.0189,6.0232,6.0299,6.039,6.0387,6.0472,6.0504,6.0593,6.0615,6.0742,6.0767,6.0785,6.0788,6.0783,6.0781,6.0816,6.0804,6.0798,6.0797,6.0795,6.0794,0,5.9808,5.9848,5.9998,6.0083,6.0107,6.0201,6.0272,6.0353,6.0387,6.0502,6.053,6.0583,6.0687,6.0722,6.0849,6.0863,6.1011,6.1007,6.0984,6.0984,6.1065,6.1056,6.1331,6.1367,6.1151,6.1153,6.1155,0,5.9928,6.0019,6.0114,6.0175,6.0223,6.0322,6.0385,6.0413,6.0479,6.0575,6.0643,6.0747,6.0831,6.0998,6.1046,6.1142,6.1138,6.1228,6.1152,6.1143,6.1135,6.1128,6.1136,6.1241,6.1243,6.1245,6.1247,0,6.0135,6.015,6.0242,6.0341,6.0416,6.0495,6.0571,6.062,6.0659,6.0732,6.0839,6.0905,6.1033,6.1135,6.1233,6.1277,6.1267,6.127,6.1294,6.1289,6.1271,6.1278,6.1019,6.1263,6.1262,6.1261,6.126,6.1259,6.0278,6.0357,6.0436,6.0537,6.0597,6.0668,6.0746,6.079,6.0881,6.0988,6.0999,6.1113,6.1187,6.1317,6.1366,6.1454,6.1429,6.1464,6.1473,6.1481,6.1485,6.1259,6.1472,6.1472,6.1472,6.1471,6.1471,0,6.0482,6.0531,6.0625,6.0731,6.081,6.0796,6.0879,6.0945,6.1046,6.1117,6.12,6.1321,6.1419,6.1475,6.1572,6.1632,6.163,6.1656,6.1651,6.166,6.1504,6.1472,6.1656,6.1656,6.1656,6.1656,6.1656,6.1656,6.0597,6.073,6.0753,6.0914,6.0963,6.1076,6.1123,6.1187,6.1243,6.1379,6.1461,6.1497,6.1561,6.1663,6.1751,6.1764,6.1799,6.1828,6.1838,6.1691,6.1672,6.1653,6.1623,6.1836,6.1836,6.1986,6.1988,6.1989]}]]